Regional Weather Roundup
Issued by NWS

Home | Current Version | Previous Version | Graphics & Text | Print | Product List | Glossary On
Versions: 1 2 3 4 5 6 7 8 9 10 11 12 13 14 15 16 17 18 19 20 21 22 23 24 25 26 27
000
ASUS45 KSLC 212010
RWRUT

UTAH REGIONAL WEATHER ROUNDUP
NATIONAL WEATHER SERVICE SALT LAKE CITY UT
100 PM MST SAT JAN 21 2017

UTZ001>011-023>025-212100-

NORTHERN UTAH

CITY           SKY/WX    TMP DP  RH WIND       PRES   REMARKS
BRIGHAM CITY     N/A     34  32  92 SW5       29.58R WCI  30
HILL AFB       LGT SNOW  32  31  96 W6        29.57R VSB 3/4 WCI  26
LOGAN          LGT SNOW  30  30 100 CALM      29.56R FOG
OGDEN          LGT SNOW  32  32 100 W5        29.58R FOG     WCI  27
SALT LAKE CITY CLOUDY    34  30  85 N6        29.59R FOG     WCI  29
TOOELE VALLEY  CLOUDY    36  32  87 SE5       29.60R WCI  32
WENDOVER       PTSUNNY   39  23  52 NW13      29.60R WCI  32
HEBER CITY     CLOUDY    32  27  80 CALM      29.51R
WEST JORDAN    CLOUDY    32  32 100 CALM      29.59R

$$

UTZ011>015-024>027-212100-

CENTRAL/NORTHEAST UTAH

CITY           SKY/WX    TMP DP  RH WIND       PRES   REMARKS
PROVO AIRPORT  CLOUDY    37  31  78 NW7       29.59R WCI  32
MOAB/CANYONLAN CLOUDY    39  34  82 W15       29.45R WCI  31
DELTA          PTSUNNY   32  30  93 S9        29.61R WCI  24
PRICE          PTSUNNY   33  31  92 CALM      29.45R
RICHFIELD      PTSUNNY   34  32  93 W9        29.61R FOG     WCI  26
ROOSEVELT      CLOUDY    32  23  69 E5        29.48R WCI  27
VERNAL         CLOUDY    26  22  84 E3        29.46R

$$

UTZ013>016-019>022-027-212100-

SOUTHERN UTAH

CITY           SKY/WX    TMP DP  RH WIND       PRES   REMARKS
BRYCE CANYON   MIX PCPN  28  18  66 NW22G31   29.55R WCI  14
CEDAR CITY     MOSUNNY   35  25  66 SW9       29.64R WCI  28
MILFORD        MOSUNNY   34  31  88 SW7       29.62R WCI  28
ST GEORGE      CLOUDY    48  34  57 W20       29.72R
HANKSVILLE     MOSUNNY   46  30  53 MISG      29.49R
KANAB          CLOUDY    37  32  81 SW12      29.69R WCI  30
BLANDING       PTSUNNY   33  30  87 SW14G20   29.54R WCI  24

$$

REGIONAL REPORTS     COLORADO/ARIZONA

CITY           SKY/WX    TMP DP  RH WIND       PRES   REMARKS
CRAIG, CO      CLOUDY    29  19  66 SW5       29.40R WCI  24
GRAND JUNCTION CLOUDY    36  33  89 E5        29.42R WCI  32
RIFLE, CO      LGT SNOW  33  29  85 W3        29.41R FOG
MONTROSE, CO   LGT SNOW  31  29  92 E3        29.44R FOG
CORTEZ, CO     SNOW      31  31 100 SW8       29.48R VSB 1/4 WCI  23
COLORADO CITY  MOCLDY    41  32  70 W17G24    29.70R
PAGE, AZ       PTSUNNY   44  23  43 W14G26    29.57R
GRAND CANYON   CLOUDY    30  26  85 W12G17    29.67R WCI  20
KINGMAN, AZ    SUNNY     46  26  45 SW12      29.77R
FLAGSTAFF, AZ  FLURRIES  29  21  72 W14G22    29.68R WCI  18

$$

REGIONAL REPORTS    NEVADA/IDAHO/WYOMING

CITY           SKY/WX    TMP DP  RH WIND       PRES   REMARKS
LAS VEGAS, NV  MOSUNNY   55  27  34 NW5       29.73S
ELY, NY        CLOUDY    32  18  56 W9        29.65R WCI  24
ELKO, NV       CLOUDY    34  23  64 SW15      29.64R WCI  24
POCATELLO, ID  CLOUDY    32  29  88 SW20      29.55R WCI  20
BURLEY, ID     PTSUNNY   35  27  72 W12       29.56R WCI  27
FORT BRIDGER,  LGT SNOW  23  23 100 W10       29.49R WCI  13
EVANSTON, WY   LGT SNOW  20  16  84 SW10      29.47R FOG     WCI   9
ROCK SPRINGS,  CLOUDY    20  17  88 W3        29.43S

$$




USA.gov is the U.S. government's official web portal to all federal, state and local government web resources and services.